logo
App data

Armada 2526

Guide one of 12 races on their first interstellar journey from a single planet, until it becomes a mighty pan-galactic empire.
Store | Hub | SteamDB | Site
Developer: Ntronium Games Publisher: Iceberg Interactive
Genre: Strategy
Languages: English
Tags: Strategy (26), Sci-fi (14), Space (8), 4X (7), Turn-Based (5)
Category: Single-player, Shared/Split Screen
Release date: Apr 8, 2011
Price: $14.99
Metascore: 66%
Owners: 0 .. 20,000
Followers: 200
Peak concurrent players yesterday: 2
Playtime total: 69:00 (average) 69:00 (median)

Steam Spy is still in beta, so expect major bugs.

Owners data:

Access restricted.

This feature is only available to users with special access rights. Sorry.

If you want to proceed, you need to register or log in first and then back Steam Spy on Patreon. Look for Indie or Pro pledge.

Don't forget to use the same email as on Steam Spy!

Audience in 2 weeks:

Access restricted.

This feature is only available to users with special access rights. Sorry.

If you want to proceed, you need to register or log in first and then back Steam Spy on Patreon. Look for Indie or Pro pledge.

Don't forget to use the same email as on Steam Spy!

Peak daily concurrent players:

CCU data courtesy of SteamDB. Used with permission.

Hourly concurrent players:

Daily Twitch stats:

Hourly Twitch stats:

YouTube:

The views data is based on top 50 videos uploaded last week. Actual number of views might be more than the number shown.

The displayed number of videos uploaded yesterday is limited to 50, so if there were more videos uploaded, the number will still show 50.

If the game has commonly used word as its name (like "FEAR" or "Volume") its number of Youtube views might be wrong.

Games similar to this one:

# Game Release date
Price
Score rank
(Userscore / Metascore)
Owners
Players
Playtime (Median)
1 Militia Dec 2, 2015 $5.9999% (98%)0 .. 20,0000%00:00 (00:00)
2 Little Big Adventure 2 Oct 20, 2015 $3.9999% (98%)0 .. 20,0000%00:00 (00:00)
3 Dungeon Warfare Nov 4, 2015 $4.4997% (97%)20,000 .. 50,0003.33%00:01 (00:00)
4 Seven Kingdoms: Ancient Adversaries Jun 8, 1998 $5.99N/A (N/A)0 .. 20,0000%00:00 (00:00)
5 Voodoo Vince: Remastered Apr 18, 2017 $14.9995% (96%/63%)0 .. 20,0000%00:00 (00:00)
6 Defend The Highlands Nov 6, 2015 $9.9995% (96%)50,000 .. 100,0001.56%03:12 (04:15)
7 Darknet Jun 8, 2017 $14.9993% (95%)0 .. 20,0000%00:00 (00:00)
8 PixelJunk Shooter Nov 11, 2013 $8.9993% (95%/73%)100,000 .. 200,0000%00:00 (00:00)
9 Chicken Invaders 2 Mar 4, 2016 $3.9993% (95%)0 .. 20,0000%00:00 (00:00)
10 Hegemony Gold: Wars of Ancient Greece Mar 30, 2012 $14.9993% (95%)20,000 .. 50,0000%00:00 (00:00)
11 Templar Battleforce Sep 21, 2015 $9.9993% (95%)20,000 .. 50,0000%00:00 (00:00)
12 Outcast 1.1 Dec 18, 2014 $5.9993% (95%)20,000 .. 50,0000%00:00 (00:00)
13 ESCHATOS Sep 18, 2015 $14.9990% (94%)0 .. 20,0000%00:00 (00:00)
14 Handsome Mr. Frog Aug 8, 2016 $0.9990% (94%)0 .. 20,0000%00:00 (00:00)
15 Audio Arena Jul 25, 2016 $6.99N/A (N/A)0 .. 20,0000%00:00 (00:00)
16 Flywrench Aug 24, 2015 $6.9990% (94%)0 .. 20,0000%00:00 (00:00)
17 Kalimba Apr 22, 2015 $9.9990% (94%/81%)0 .. 20,0000%00:00 (00:00)
18 Star Trek: Judgment Rites May 8, 2015 $9.99N/A (N/A)0 .. 20,0000%00:00 (00:00)
19 Run or Die Dec 11, 2014 $4.9990% (94%)0 .. 20,0000%00:00 (00:00)
20 Gold Rush! Classic Jul 25, 2014 $2.99N/A (N/A)200,000 .. 500,0000%00:00 (00:00)
21 Neon Chrome Apr 28, 2016 $14.9990% (94%/74%)200,000 .. 500,0001.42%01:34 (01:27)
22 Supercharged Robot VULKAISER Jun 4, 2015 $4.9990% (94%)20,000 .. 50,0000%00:00 (00:00)
23 Spider: Rite of the Shrouded Moon Aug 6, 2015 $9.9990% (94%)20,000 .. 50,0000%00:00 (00:00)
24 Majesty Gold HD Sep 4, 2009 $9.9990% (94%)100,000 .. 200,0000%00:00 (00:00)
25 Stick it to The Man! Dec 13, 2013 $7.9990% (94%/83%)20,000 .. 50,0000%00:00 (00:00)
26 Tallowmere Mar 3, 2015 $3.9987% (93%)20,000 .. 50,0007.69%02:35 (01:41)
27 Eufloria HD Oct 14, 2014 $14.9987% (93%)200,000 .. 500,0000%00:00 (00:00)
28 Major Mayhem Feb 24, 2014 $4.9987% (93%)0 .. 20,0000%00:00 (00:00)
29 Ys VI: The Ark of Napishtim Apr 28, 2015 $19.9987% (93%)50,000 .. 100,0000%00:00 (00:00)
30 Super Trench Attack! Jul 24, 2014 $4.9987% (93%)50,000 .. 100,0000%00:00 (00:00)
31 RIVE: Wreck, Hack, Die, Retry! Sep 13, 2016 $14.9987% (93%)200,000 .. 500,0000%00:00 (00:00)
32 Bleed Jul 3, 2013 $4.9987% (93%)100,000 .. 200,0000%00:00 (00:00)
33 Kick Ass Commandos Nov 17, 2016 $9.9987% (93%)0 .. 20,0000%00:00 (00:00)
34 Adventure in the Tower of Flight Dec 23, 2015 $4.9987% (93%)0 .. 20,0000%00:00 (00:00)
35 Mad Bullets Jun 10, 2016 $1.9983% (92%)0 .. 20,0000%00:00 (00:00)
36 Below Kryll Sep 7, 2015 $4.9983% (92%)0 .. 20,0000%00:00 (00:00)
37 Pharaoh Rebirth+ Mar 17, 2016 $9.9983% (92%)0 .. 20,0000%00:00 (00:00)
38 Ittle Dew Jul 23, 2013 $9.9983% (92%/67%)20,000 .. 50,0000%00:00 (00:00)
39 Knightmare Tower Jun 16, 2014 $3.9983% (92%)0 .. 20,0000%00:00 (00:00)
40 Great Big War Game Aug 28, 2012 $6.99N/A (N/A)0 .. 20,0000%00:00 (00:00)
41 Battle Academy 2: Eastern Front Sep 12, 2014 $39.9983% (92%/78%)0 .. 20,0000%00:00 (00:00)
42 Anarcute Jul 12, 2016 $14.9983% (92%/79%)0 .. 20,0005.88%00:01 (00:00)
43 Wars and Warriors: Joan of Arc Sep 3, 2015 $6.9983% (92%/60%)0 .. 20,0000%00:00 (00:00)
44 The Juicer Sep 11, 2015 $0.9983% (92%)20,000 .. 50,0000.79%05:09 (01:43)
45 Death Ray Manta SE Sep 17, 2015 $1.9983% (92%)20,000 .. 50,0000%00:00 (00:00)
46 Super Cyborg Jul 8, 2015 $4.9983% (92%)20,000 .. 50,0003.9%03:24 (02:26)
47 Shmups Skill Test シューティング技能検定 Jun 9, 2016 $4.99N/A (N/A)0 .. 20,0000%00:00 (00:00)
48 Momodora III Jul 1, 2014 $1.9979% (91%)50,000 .. 100,0000%00:00 (00:00)
49 Clash of Puppets Dec 16, 2014 $4.9979% (91%)0 .. 20,0000%00:00 (00:00)
50 Angry Video Game Nerd II: ASSimilation Mar 29, 2016 $9.9979% (91%)20,000 .. 50,0000%00:00 (00:00)
51 Skulls of the Shogun Jul 29, 2013 $9.9979% (91%/72%)100,000 .. 200,0000.5%05:29 (01:49)
52 Armed with Wings: Rearmed Jun 1, 2017 $9.9979% (91%)20,000 .. 50,0000%00:00 (00:00)
53 Earth Defense Force: Insect Armageddon Dec 14, 2011 $9.9979% (91%/69%)50,000 .. 100,0001.56%00:10 (00:03)
54 Miracle Fly Oct 26, 2015 $7.9979% (91%)20,000 .. 50,0002.38%00:23 (00:07)
55 Near Death Aug 2, 2016 $7.4979% (91%/70%)0 .. 20,0000%00:00 (00:00)
56 Warrior Kings: Battles May 6, 2014 $9.9979% (91%/64%)20,000 .. 50,0000%00:00 (00:00)
57 Explosionade Sep 23, 2015 $3.99N/A (N/A)0 .. 20,0000%00:00 (00:00)
58 Blue Estate The Game Apr 8, 2015 $12.9979% (91%/59%)50,000 .. 100,0000%00:00 (00:00)
59 Dandy: Or a Brief Glimpse Into the Life of the Candy Alchemist Aug 4, 2015 $9.99N/A (N/A)0 .. 20,0000%00:00 (00:00)
60 Demons with Shotguns Apr 25, 2016 $9.99N/A (N/A)0 .. 20,0000%00:00 (00:00)
61 Khet 2.0 Oct 1, 2014 $9.9979% (91%)50,000 .. 100,0000%00:00 (00:00)
62 Swords and Soldiers HD Dec 2, 2010 $9.9979% (91%)200,000 .. 500,0000%00:00 (00:00)
63 Valley Aug 24, 2016 $19.9979% (91%)100,000 .. 200,0002.22%00:07 (00:04)
64 Silent Storm Gold Edition Oct 2, 2013 $9.9976% (90%/83%)100,000 .. 200,0002.53%08:07 (05:24)
65 System Crash Mar 10, 2016 $14.9976% (90%)0 .. 20,0000%00:00 (00:00)
66 Fort Meow Jun 24, 2015 $2.7176% (90%)0 .. 20,0003.85%00:09 (00:03)
67 Kohan: Ahriman's Gift Aug 24, 2011 $9.99N/A (N/A/79%)0 .. 20,0000%00:00 (00:00)
68 Weird Hero Nov 18, 2016 $2.9976% (90%)0 .. 20,0000%00:00 (00:00)
69 Kohan II: Kings of War Aug 24, 2011 $9.9976% (90%/81%)0 .. 20,0000%00:00 (00:00)
70 Lethe - Episode One Aug 1, 2016 $14.9976% (90%)0 .. 20,0003.13%00:01 (00:00)
71 Apocalypse: Party's Over May 30, 2016 $4.9976% (90%)0 .. 20,0005.26%00:03 (00:01)
72 Ace of Seafood Apr 8, 2016 $11.9976% (90%)0 .. 20,00016.67%03:25 (01:08)
73 Superstatic Sep 15, 2015 $4.99N/A (N/A)0 .. 20,0000%00:00 (00:00)
74 Headlander Jul 25, 2016 $19.9976% (90%/74%)100,000 .. 200,0000%00:00 (00:00)
75 Death's Hangover Jan 20, 2017 $4.9976% (90%)20,000 .. 50,0004.55%03:12 (02:16)
76 Planet of the Eyes Aug 24, 2015 $9.9976% (90%/66%)50,000 .. 100,0000%00:00 (00:00)
77 MoonBase Commander Feb 6, 2014 $5.9973% (89%/77%)20,000 .. 50,0000%00:00 (00:00)
78 Spectromancer Feb 11, 2009 $9.9973% (89%)0 .. 20,0000%00:00 (00:00)
79 CastleStorm Jul 29, 2013 $9.9973% (89%/73%)100,000 .. 200,0000%00:00 (00:00)
80 Codename: Panzers, Phase Two Feb 18, 2016 $14.9973% (89%/80%)0 .. 20,0000%00:00 (00:00)
81 Reverse Crawl Sep 24, 2015 $5.9973% (89%)20,000 .. 50,0001.25%06:21 (02:07)
82 Zombo Buster Rising Oct 2, 2016 $1.9973% (89%)0 .. 20,0000%00:00 (00:00)
83 Amaranthine Apr 6, 2016 $0.8973% (89%)0 .. 20,0004.17%04:44 (01:34)
84 Warhammer 40,000: Dawn of War – Winter Assault Aug 7, 2007 $12.9973% (89%)100,000 .. 200,0000.95%00:21 (00:20)
85 Earn to Die 2 May 5, 2016 $4.9970% (88%)0 .. 20,0000%00:00 (00:00)
86 The Way May 20, 2016 $14.9970% (88%/67%)20,000 .. 50,0003.57%01:28 (00:50)
87 Viking Squad Oct 4, 2016 $14.9970% (88%)0 .. 20,0000%00:00 (00:00)
88 Blacksea Odyssey Jun 1, 2016 $9.9970% (88%/74%)0 .. 20,0000%00:00 (00:00)
89 Super Furball Apr 21, 2015 $3.99N/A (N/A)0 .. 20,0000%00:00 (00:00)
90 Anodyne Mar 22, 2013 $9.9970% (88%/75%)100,000 .. 200,0000%00:00 (00:00)
91 Battlepillars Gold Edition Apr 28, 2014 $4.9970% (88%)20,000 .. 50,0000%00:00 (00:00)
92 Tcheco in the Castle of Lucio Jun 22, 2015 $0.9970% (88%)50,000 .. 100,0000.53%02:39 (00:53)
93 The Fall May 30, 2014 $9.9970% (88%/76%)200,000 .. 500,0001.52%04:40 (03:30)
94 Avoid - Sensory Overload Apr 8, 2014 $4.9970% (88%)0 .. 20,0000%00:00 (00:00)
95 Greed Corp Dec 10, 2010 $9.9970% (88%/76%)200,000 .. 500,0000%00:00 (00:00)
96 Syrian Warfare Feb 21, 2017 $14.9970% (88%)20,000 .. 50,0002.94%00:01 (00:00)
97 Atom Zombie Smasher Mar 14, 2011 $9.9970% (88%/75%)200,000 .. 500,0000%00:00 (00:00)
98 Supreme Commander Sep 28, 2011 $14.9968% (87%/86%)200,000 .. 500,0000%00:00 (00:00)
99 Mr. Shifty Apr 13, 2017 $14.9968% (87%)50,000 .. 100,0000%00:00 (00:00)
100 Spooky Cats Jun 4, 2015 $2.9968% (87%)20,000 .. 50,0001.79%02:05 (00:41)
101 The Tiny Tale 2 Jan 30, 2015 $6.99N/A (N/A)0 .. 20,0000%00:00 (00:00)
102 Civilization IV: Warlords Apr 6, 2007 $4.9968% (87%/84%)1,000,000 .. 2,000,0000.24%00:02 (00:00)
103 Sang-Froid - Tales of Werewolves Apr 5, 2013 Free68% (87%/79%)50,000 .. 100,0000.9%01:58 (01:57)
104 TRON 2.0 Oct 10, 2014 $9.9968% (87%/84%)50,000 .. 100,0000%00:00 (00:00)
105 Shadow Blade: Reload Aug 10, 2015 $14.9968% (87%/70%)20,000 .. 50,0002.47%01:50 (01:13)
106 Interloper May 21, 2015 $168% (87%/77%)50,000 .. 100,0000.77%03:32 (02:21)
107 Super Chibi Knight Jun 24, 2015 $4.9965% (86%)0 .. 20,0000%00:00 (00:00)
108 Executive Assault Jul 17, 2015 $12.9965% (86%)20,000 .. 50,0004.55%00:23 (00:07)
109 Meltdown Jun 5, 2014 $6.9965% (86%)50,000 .. 100,0000%00:00 (00:00)
110 Western 1849 Reloaded Feb 10, 2017 $4.9965% (86%)0 .. 20,0000%00:00 (00:00)
111 Time Rifters Oct 21, 2014 $9.9965% (86%)0 .. 20,0000%00:00 (00:00)
112 N2O: Nitrous Oxide Jun 29, 2015 $4.99N/A (N/A)0 .. 20,0000%00:00 (00:00)
113 Neon Shadow Aug 25, 2016 $4.99N/A (N/A)0 .. 20,0000%00:00 (00:00)
114 Star Ruler Sep 20, 2010 $9.9965% (86%)100,000 .. 200,0000%00:00 (00:00)
115 Ghost Master Dec 21, 2006 $0.9965% (86%/81%)100,000 .. 200,0000%00:00 (00:00)
116 Rush for Berlin Gold Oct 29, 2009 $4.9965% (86%/76%)20,000 .. 50,0002.5%00:02 (00:00)
117 Age of Wonders Shadow Magic Oct 2010 $9.9965% (86%/82%)20,000 .. 50,0000%00:00 (00:00)
118 Arcane Sorcery Sep 15, 2015 $0.74N/A (N/A)0 .. 20,0000%00:00 (00:00)
119 VelocityUltra Dec 12, 2013 $9.9965% (86%)50,000 .. 100,0000%00:00 (00:00)
120 The Haunted: Hells Reach Oct 24, 2011 $8.9965% (86%/51%)50,000 .. 100,0000%00:00 (00:00)
121 Slash or Die Jun 3, 2016 $2.9962% (85%)50,000 .. 100,0001.29%04:21 (02:54)
122 NOBUNAGA'S AMBITION: Souzou (Traditional Chinese version) Aug 2014 $24.9962% (85%)20,000 .. 50,0000%00:00 (00:00)
123 ShootMania Storm Apr 10, 2013 $19.9962% (85%/76%)50,000 .. 100,0000%00:00 (00:00)
124 Steel Rain Dec 3, 2015 $9.9962% (85%)0 .. 20,0000%00:00 (00:00)
125 CRYPTARK Jun 20, 2017 $14.9962% (85%/80%)50,000 .. 100,0000%00:00 (00:00)
126 Magnifico Dec 2, 2014 $4.9962% (85%)0 .. 20,0000%00:00 (00:00)
127 Dustoff Heli Rescue Mar 6, 2015 $3.9962% (85%)20,000 .. 50,0000%00:00 (00:00)
128 ENSLAVED: Odyssey to the West Premium Edition Oct 24, 2013 $19.9962% (85%/70%)200,000 .. 500,0000.32%00:01 (00:00)
129 Advanced Tactics Gold Aug 15, 2014 $29.9959% (84%)0 .. 20,0000%00:00 (00:00)
130 Conflict Desert Storm May 28, 2012 $6.9959% (84%/56%)20,000 .. 50,0000%00:00 (00:00)
131 Foresight Nov 28, 2014 $4.99N/A (N/A)0 .. 20,0000%00:00 (00:00)
132 Gurgamoth Feb 16, 2016 $4.9959% (84%)50,000 .. 100,0000%00:00 (00:00)
133 Battle Group 2 Jun 13, 2014 $7.9959% (84%)50,000 .. 100,0000%00:00 (00:00)
134 Sudden Strike 2 Gold Aug 30, 2002 $5.9959% (84%)20,000 .. 50,0000%00:00 (00:00)
135 Bulletstorm: Full Clip Edition Apr 7, 2017 $39.9959% (84%/76%)20,000 .. 50,0004.76%05:24 (01:48)
136 Rooks Keep Dec 5, 2014 $7.9959% (84%)0 .. 20,0001.45%04:33 (01:31)
137 Yomi May 8, 2015 $14.9959% (84%)0 .. 20,0000%00:00 (00:00)
138 Eador: Genesis Oct 14, 2013 $5.9959% (84%)50,000 .. 100,0000%00:00 (00:00)
139 Ballistic Tanks Sep 20, 2016 $4.9959% (84%)0 .. 20,0000%00:00 (00:00)
140 Last Knight: Rogue Rider Edition Oct 3, 2014 $7.9959% (84%)20,000 .. 50,0000%00:00 (00:00)
141 Act of War: Direct Action Mar 12, 2008 $2.9959% (84%/82%)20,000 .. 50,0000%00:00 (00:00)
142 Child Of Ault Jan 24, 2017 $9.99N/A (N/A)0 .. 20,0000%00:00 (00:00)
143 Fat Chicken Dec 4, 2014 $9.99N/A (N/A)0 .. 20,0000%00:00 (00:00)
144 Ace of Protectors Jun 27, 2016 $1.99N/A (N/A)0 .. 20,0000%00:00 (00:00)
145 Delta Force 2 Jun 18, 2009 $4.9957% (83%)50,000 .. 100,0002.78%00:50 (00:16)
146 GIBZ Apr 7, 2017 $7.9957% (83%)0 .. 20,0000%00:00 (00:00)
147 Orbital Gear Aug 7, 2014 $0.9957% (83%/59%)200,000 .. 500,0000%00:00 (00:00)
148 Galaxy Admirals Jan 17, 2017 $1.9957% (83%)50,000 .. 100,0000%00:00 (00:00)
149 TY the Tasmanian Tiger 4 Sep 17, 2015 $5.9957% (83%)0 .. 20,0000%00:00 (00:00)
150 Crush Your Enemies Jul 13, 2016 $9.9957% (83%/63%)20,000 .. 50,0000%00:00 (00:00)
151 Legend (1994) Nov 10, 2015 $4.99N/A (N/A)0 .. 20,0000%00:00 (00:00)
152 Disciples Sacred Lands Gold Oct 7, 2014 $7.9957% (83%)50,000 .. 100,0000%00:00 (00:00)
153 Rack N Ruin Sep 1, 2015 $9.99N/A (N/A)0 .. 20,0000%00:00 (00:00)
154 NOBUNAGA'S AMBITION: Sphere of Influence Sep 1, 2015 $59.9957% (83%/70%)20,000 .. 50,0000%00:00 (00:00)
155 Decisive Campaigns: The Blitzkrieg from Warsaw to Paris Jan 22, 2015 $39.99N/A (N/A)0 .. 20,0000%00:00 (00:00)
156 htoL#NiQ: The Firefly Diary / htoL#NiQ-ホタルノニッキ- May 18, 2016 $9.9955% (82%)0 .. 20,0000%00:00 (00:00)
157 Blade Arcus from Shining: Battle Arena Jul 28, 2016 $29.9955% (82%)0 .. 20,0000%00:00 (00:00)
158 After The End: The Harvest Jun 2, 2017 $4.9955% (82%)20,000 .. 50,0000%00:00 (00:00)
159 Fleet Command Oct 26, 2006 $9.9955% (82%)20,000 .. 50,0000%00:00 (00:00)
160 Shadow Ops: Red Mercury Jul 2, 2014 $6.9955% (82%/61%)20,000 .. 50,0000%00:00 (00:00)
161 Square Brawl Oct 22, 2015 $4.9952% (81%)0 .. 20,0000%00:00 (00:00)
162 In Verbis Virtus Apr 3, 2015 $19.9952% (81%)50,000 .. 100,0000%00:00 (00:00)
163 Age of Wonders Oct 2010 $5.9952% (81%)100,000 .. 200,0000%00:00 (00:00)
164 PixelJunk Shooter Ultimate Oct 21, 2015 $9.9952% (81%)0 .. 20,0000%00:00 (00:00)
165 She Wants Me Dead May 13, 2016 $7.9952% (81%)0 .. 20,0000%00:00 (00:00)
166 Jim Power -The Lost Dimension Sep 30, 2015 $4.99N/A (N/A)0 .. 20,0000%00:00 (00:00)
167 Enemy Mind Jun 6, 2014 $9.9952% (81%)200,000 .. 500,0000%00:00 (00:00)
168 Junk Jack Nov 30, 2016 $14.9952% (81%)0 .. 20,00025%00:52 (00:17)
169 Toadled Sep 22, 2016 $0.4952% (81%)50,000 .. 100,0000%00:00 (00:00)
170 rymdkapsel Jan 30, 2014 $7.9952% (81%/77%)0 .. 20,0000%00:00 (00:00)
171 Graviteam Tactics: Operation Star Feb 11, 2014 $29.9950% (80%)20,000 .. 50,00016.67%00:25 (00:16)
172 Fate of the World Feb 28, 2011 $9.9950% (80%/70%)50,000 .. 100,0000%00:00 (00:00)
173 Gun Metal Jan 16, 2014 $2.9950% (80%)200,000 .. 500,0000.22%00:18 (00:06)
174 Trigger Runners Mar 3, 2016 $1.9950% (80%)0 .. 20,0000%00:00 (00:00)
175 Perimeter Apr 3, 2014 $3.9950% (80%/77%)20,000 .. 50,0000%00:00 (00:00)
176 Fantasy Wars Aug 6, 2010 $4.9950% (80%/67%)50,000 .. 100,0000%00:00 (00:00)
177 Anomaly Warzone Earth Mobile Campaign Nov 6, 2013 $4.9950% (80%)100,000 .. 200,0000%00:00 (00:00)
178 Age of Gladiators Feb 25, 2016 $9.9950% (80%)20,000 .. 50,0001.96%00:38 (00:12)
179 Umihara Kawase Shun: Steam Edition Nov 24, 2015 $11.99N/A (N/A)0 .. 20,0000%00:00 (00:00)
180 Conquest of Elysium 3 Oct 24, 2012 $4.9950% (80%)20,000 .. 50,0000%00:00 (00:00)
181 Tiki Man Jun 5, 2015 $0.9950% (80%)20,000 .. 50,0001.09%00:01 (00:00)
182 Dominions 3: The Awakening Sep 10, 2013 $19.9950% (80%/82%)0 .. 20,0000%00:00 (00:00)
183 Weapon of Choice Sep 23, 2015 $4.99N/A (N/A)0 .. 20,0000%00:00 (00:00)
184 Ninjahtic Jul 6, 2015 $1.9950% (80%)0 .. 20,0000%00:00 (00:00)
185 Defense Zone 3 Ultra HD Dec 14, 2016 $2.9950% (80%)0 .. 20,0000%00:00 (00:00)
186 Legends of Callasia Jun 10, 2016 Free50% (80%)20,000 .. 50,0000%00:00 (00:00)
187 7,62 High Calibre Apr 30, 2014 $4.9950% (80%)50,000 .. 100,0000%00:00 (00:00)
188 Bloodsports.TV Mar 30, 2015 $9.9950% (80%/69%)50,000 .. 100,0000%00:00 (00:00)
189 Making History: The Calm & the Storm Mar 13, 2007 $4.9950% (80%/70%)50,000 .. 100,0000%00:00 (00:00)
190 Gatling Gears Aug 30, 2011 $9.9950% (80%)20,000 .. 50,0000%00:00 (00:00)
191 Supreme Ruler 2020 Gold Jul 9, 2009 $9.9950% (80%/65%)50,000 .. 100,0000%00:00 (00:00)
192 Zeno Clash 2 Apr 30, 2013 $14.9950% (80%)100,000 .. 200,0000%00:00 (00:00)
193 Monday Night Combat Jan 24, 2011 $4.9950% (80%/82%)200,000 .. 500,0000%00:00 (00:00)
194 Anomaly 2 May 15, 2013 $14.9950% (80%/77%)200,000 .. 500,0000%00:00 (00:00)
195 Run Rabbit Run Mar 31, 2016 $3.9950% (80%)0 .. 20,0003.57%11:37 (03:52)
196 ROD: Revolt Of Defense Aug 12, 2016 $0.9950% (80%)20,000 .. 50,0000%00:00 (00:00)
197 Interplanetary May 12, 2015 N/A50% (80%)100,000 .. 200,0000%00:00 (00:00)
198 Blue Effect VR Sep 29, 2016 $14.9948% (79%)0 .. 20,0000%00:00 (00:00)
199 Advent Rising Sep 14, 2006 $9.9948% (79%/70%)20,000 .. 50,0000%00:00 (00:00)
200 Zombie Party Jun 10, 2016 $9.9948% (79%)100,000 .. 200,0000%00:00 (00:00)
201 Star Wolves 3: Civil War Mar 2, 2010 $4.9948% (79%)100,000 .. 200,0000.76%00:30 (00:10)
202 Cultures - 8th Wonder of the World Mar 26, 2015 $4.9948% (79%)50,000 .. 100,0000%00:00 (00:00)
203 Vietnam ‘65 Mar 5, 2015 $9.9948% (79%/81%)20,000 .. 50,0000%00:00 (00:00)
204 Ironcast Mar 26, 2015 $14.9948% (79%/75%)20,000 .. 50,0000%00:00 (00:00)
205 Locoland May 28, 2015 $4.9948% (79%)0 .. 20,0000%00:00 (00:00)
206 Demolition Inc. Sep 19, 2011 $5.9948% (79%)50,000 .. 100,0000%00:00 (00:00)
207 TRON RUN/r Feb 16, 2016 $19.9948% (79%)0 .. 20,0000%00:00 (00:00)
208 Nuclear Dawn Sep 26, 2011 $9.9948% (79%/71%)200,000 .. 500,0000.72%01:16 (00:44)
209 TASTEE: Lethal Tactics May 10, 2016 $14.9948% (79%)0 .. 20,0003.23%04:11 (02:47)
210 David. Feb 16, 2015 $1.9948% (79%)50,000 .. 100,0000.88%04:34 (01:31)
211 Fortified Feb 3, 2016 $14.9948% (79%)0 .. 20,0000%00:00 (00:00)
212 Protoshift Jan 15, 2016 $0.9948% (79%)0 .. 20,0001.69%03:19 (01:06)
213 Caster Mar 19, 2009 $1.9948% (79%)200,000 .. 500,0000.28%333:20 (111:06)
214 Dead Rising 2: Off the Record Oct 11, 2011 $19.9946% (78%/66%)200,000 .. 500,0001.7%04:30 (02:46)
215 Envoy Mar 17, 2016 $0.4946% (78%)50,000 .. 100,0000%00:00 (00:00)
216 Tank Destroyer Mar 9, 2017 $2.9946% (78%)20,000 .. 50,0000%00:00 (00:00)
217 Zombie Killtime Aug 4, 2015 $1.99N/A (N/A)0 .. 20,0000%00:00 (00:00)
218 Battle Mages: Sign of Darkness Jul 24, 2014 $4.9946% (78%)0 .. 20,0000%00:00 (00:00)
219 Aeon Command Jul 3, 2014 $2.9946% (78%)20,000 .. 50,0000%00:00 (00:00)
220 Star Realms Mar 8, 2016 Free46% (78%)100,000 .. 200,0000%00:00 (00:00)
221 Vector Strain Dec 9, 2015 $4.99N/A (N/A)20,000 .. 50,0000%00:00 (00:00)
222 Making History II: The War of the World Aug 27, 2010 $14.9946% (78%/38%)20,000 .. 50,0000%00:00 (00:00)
223 Battlezone Gold Edition May 11, 2017 $34.9946% (78%)0 .. 20,0000%00:00 (00:00)
224 Dangerous Waters Feb 7, 2006 $14.9946% (78%/82%)50,000 .. 100,0000%00:00 (00:00)
225 Curse of the Crescent Isle DX Aug 21, 2015 $4.9946% (78%)0 .. 20,0000%00:00 (00:00)
226 PAC-MAN and the Ghostly Adventures Oct 29, 2013 $19.9946% (78%)0 .. 20,0000%00:00 (00:00)
227 Deadly 30 Jan 8, 2014 $4.9946% (78%)100,000 .. 200,0003.94%04:32 (04:47)
228 Strike Suit Zero: Director's Cut Apr 8, 2014 $19.9946% (78%)20,000 .. 50,0000%00:00 (00:00)
229 Pharaonic Apr 28, 2016 $9.7446% (78%)0 .. 20,0000%00:00 (00:00)
230 Mold on Pizza Sep 25, 2015 $4.1946% (78%)0 .. 20,0000%00:00 (00:00)
231 Starscape Nov 3, 2008 $7.9946% (78%)20,000 .. 50,0000%00:00 (00:00)
232 The Legend of Dark Witch Dec 1, 2015 $4.9946% (78%)20,000 .. 50,0000%00:00 (00:00)
233 Warhammer 40,000: Armageddon Nov 26, 2014 $39.9944% (77%/68%)20,000 .. 50,0000%00:00 (00:00)
234 The Political Machine 2016 Feb 4, 2016 $9.9944% (77%)50,000 .. 100,0000%00:00 (00:00)
235 A.R.E.S. Extinction Agenda EX Oct 3, 2014 $9.9944% (77%)0 .. 20,0000%00:00 (00:00)
236 Riddled Corpses Jun 2, 2015 $7.9944% (77%)20,000 .. 50,0000%00:00 (00:00)
237 A Blind Legend Apr 7, 2016 $6.9944% (77%)0 .. 20,0005.41%04:36 (03:04)
238 Bet On Soldier Dec 5, 2014 $7.9944% (77%)50,000 .. 100,0000%00:00 (00:00)
239 Sky Gamblers: Storm Raiders Jan 7, 2015 $9.9944% (77%)0 .. 20,0000%00:00 (00:00)
240 McDROID Sep 5, 2014 $9.9944% (77%)0 .. 20,0000%00:00 (00:00)
241 Painkiller Hell & Damnation Oct 31, 2012 $19.9944% (77%/64%)200,000 .. 500,0000.73%00:50 (00:28)
242 Mysterium: A Psychic Clue Game Jan 12, 2017 $9.9944% (77%)50,000 .. 100,0000%00:00 (00:00)
243 King of Dragon Pass Jul 28, 2015 $11.9944% (77%)20,000 .. 50,0000.91%00:01 (00:00)
244 Olympia Rising Jul 23, 2015 $4.9944% (77%)0 .. 20,0000%00:00 (00:00)
245 Monster Monpiece Mar 14, 2017 $19.9942% (76%)20,000 .. 50,00011.11%114:40 (113:55)
246 WARSHIFT Oct 12, 2016 $12.9942% (76%)20,000 .. 50,0000%00:00 (00:00)
247 Master Reboot Oct 29, 2013 $14.9942% (76%/59%)50,000 .. 100,0001.05%06:12 (02:04)
248 BloodRayne Sep 14, 2006 $9.9942% (76%/65%)50,000 .. 100,0000%00:00 (00:00)
249 Battle Time Sep 29, 2016 $0.9942% (76%)20,000 .. 50,0000%00:00 (00:00)
250 Fist Puncher Jun 21, 2013 $9.9942% (76%/73%)20,000 .. 50,0000%00:00 (00:00)
251 Z Jul 4, 2014 $6.9942% (76%)100,000 .. 200,0001.78%02:03 (02:42)
252 Cashtronauts Aug 31, 2016 $2.9942% (76%)0 .. 20,0000%00:00 (00:00)
253 Extravaganza Rising Jul 21, 2016 $5.99N/A (N/A)20,000 .. 50,0000%00:00 (00:00)
254 Chaser Jul 16, 2010 $4.9942% (76%/66%)100,000 .. 200,0000%00:00 (00:00)
255 Heroes of Might & Magic V: Hammers of Fate Oct 10, 2008 $9.9942% (76%/66%)20,000 .. 50,0000%00:00 (00:00)
256 Livelock Aug 30, 2016 $9.9942% (76%/73%)20,000 .. 50,0002.08%02:57 (00:59)
257 Deadlings: Rotten Edition Nov 11, 2014 $3.9942% (76%)50,000 .. 100,0000%00:00 (00:00)
258 Rocketbirds 2 Evolution Jan 26, 2017 $9.9942% (76%)0 .. 20,0002.17%00:57 (00:19)
259 Heroes of Arca Feb 16, 2017 Free42% (76%)0 .. 20,0000%00:00 (00:00)
260 Rocket Knight May 11, 2010 $14.9942% (76%/63%)0 .. 20,0000%00:00 (00:00)
261 Starchaser: Priestess of the Night Sky Jul 24, 2015 $9.99N/A (N/A)0 .. 20,0000%00:00 (00:00)
262 Velocity 2X Aug 19, 2015 $19.9942% (76%)50,000 .. 100,0000%00:00 (00:00)
263 Onechanbara Z2: Chaos Jun 2, 2016 $39.9940% (75%)0 .. 20,0000%00:00 (00:00)
264 Civil War II Jul 3, 2014 $39.9940% (75%)0 .. 20,0000%00:00 (00:00)
265 BossConstructor Oct 24, 2016 $7.4940% (75%)0 .. 20,0000%00:00 (00:00)
266 AirMech Command Mar 8, 2017 $19.9940% (75%)0 .. 20,0000%00:00 (00:00)
267 GEARGUNS Tank offensive Sep 22, 2016 $7.9940% (75%)20,000 .. 50,0001.39%00:01 (00:00)
268 Victory At Sea Aug 8, 2014 $24.9940% (75%)20,000 .. 50,0000%00:00 (00:00)
269 Albino Lullaby: Episode 1 Sep 14, 2015 $9.9940% (75%)20,000 .. 50,0000%00:00 (00:00)
270 CivCity: Rome Apr 6, 2007 $9.9940% (75%/67%)50,000 .. 100,0000%00:00 (00:00)
271 Auralux: Constellations Jun 1, 2016 $9.9940% (75%)0 .. 20,0000%00:00 (00:00)
272 Platformines Mar 28, 2014 $9.9940% (75%/67%)100,000 .. 200,0000%00:00 (00:00)
273 FIVE: Champions of Canaan Sep 27, 2016 $3.9940% (75%)0 .. 20,0000%00:00 (00:00)
274 Pick a Hero Jun 9, 2016 $0.99N/A (N/A)0 .. 20,0000%00:00 (00:00)
275 Smell Of Death Jul 4, 2016 $9.9940% (75%)0 .. 20,0000%00:00 (00:00)
276 Spirits of Xanadu Mar 26, 2015 $0.9940% (75%)20,000 .. 50,0000%00:00 (00:00)
277 Zoo Empire Sep 3, 2015 $6.99N/A (N/A/59%)0 .. 20,0000%00:00 (00:00)
278 The Superfluous May 19, 2017 $4.99N/A (N/A)0 .. 20,0000%00:00 (00:00)
279 Corgi Warlock Dec 3, 2015 $0.4940% (75%)20,000 .. 50,0000%00:00 (00:00)
280 Perimeter: Emperor's Testament May 22, 2014 $3.99N/A (N/A/72%)20,000 .. 50,0000%00:00 (00:00)
281 Commander: The Great War Jul 25, 2014 $29.9940% (75%)0 .. 20,0000%00:00 (00:00)
282 Vampire of the Sands Jul 17, 2015 $4.9939% (74%)0 .. 20,0000%00:00 (00:00)
283 Making History: The Great War Jan 29, 2015 $29.9939% (74%)20,000 .. 50,0000%00:00 (00:00)
284 Supreme Ruler Ultimate Oct 17, 2014 $19.9939% (74%)20,000 .. 50,0008.33%00:02 (00:00)
285 Phoning Home Feb 7, 2017 $19.9939% (74%/61%)20,000 .. 50,0004.26%04:26 (02:57)
286 TableTop Soccer Apr 22, 2016 $0.9939% (74%)0 .. 20,0000%00:00 (00:00)
287 Auro: A Monster-Bumping Adventure Apr 13, 2016 $6.9939% (74%)0 .. 20,0000%00:00 (00:00)
288 FEIST Jul 23, 2015 $9.9939% (74%)20,000 .. 50,0000%00:00 (00:00)
289 Codex of Victory Mar 16, 2017 $14.9939% (74%)0 .. 20,0000%00:00 (00:00)
290 Viktor Jun 13, 2014 $7.9939% (74%)20,000 .. 50,0000%00:00 (00:00)
291 Bubsy Two-Fur Dec 17, 2015 $1.9939% (74%)0 .. 20,0000%00:00 (00:00)
292 Hunting Unlimited 2008 Jan 29, 2008 $3.99N/A (N/A)20,000 .. 50,0000%00:00 (00:00)
293 Divinity: Dragon Commander Aug 6, 2013 $39.9939% (74%)100,000 .. 200,0000%00:00 (00:00)
294 Othello Mar 19, 2015 $9.9939% (74%)0 .. 20,0000%00:00 (00:00)
295 Distant Worlds: Universe May 23, 2014 $59.9939% (74%/81%)50,000 .. 100,0004%00:38 (00:12)
296 Sid Meier’s Ace Patrol Aug 27, 2013 $4.9939% (74%)500,000 .. 1,000,0000%00:00 (00:00)
297 Ubersoldier II Mar 25, 2014 $9.9939% (74%/62%)100,000 .. 200,0000%00:00 (00:00)
298 Hot Tin Roof: The Cat That Wore A Fedora Feb 20, 2015 $14.9939% (74%/66%)100,000 .. 200,0000.98%00:35 (00:11)
299 NOBUNAGA’S AMBITION: Kakushin with Power Up Kit / 信長の野望・革新 with パワーアップキット Jun 25, 2015 $54.99N/A (N/A)0 .. 20,0000%00:00 (00:00)
300 Banzai Escape Mar 16, 2016 $5.9939% (74%)0 .. 20,0000%00:00 (00:00)
301 LEGO Indiana Jones 2: The Adventure Continues Feb 18, 2010 $19.9937% (73%/66%)20,000 .. 50,0000%00:00 (00:00)
302 Death by Game Show Jan 22, 2016 $9.9937% (73%)20,000 .. 50,0001.92%02:02 (00:40)
303 Cast of the Seven Godsends - Redux Jul 20, 2015 $9.9937% (73%)20,000 .. 50,0000%00:00 (00:00)
304 VRZ: Torment Jun 9, 2016 $9.9937% (73%)0 .. 20,0000%00:00 (00:00)
305 Rex Rocket Aug 5, 2014 $4.9937% (73%)20,000 .. 50,0000%00:00 (00:00)
306 Battle Fleet 2 Nov 20, 2014 $14.9937% (73%)0 .. 20,0000%00:00 (00:00)
307 The Aquatic Adventure of the Last Human Jan 19, 2016 $9.9937% (73%/76%)0 .. 20,0000%00:00 (00:00)
308 Retrovirus Jan 31, 2013 $9.9937% (73%/70%)20,000 .. 50,0000%00:00 (00:00)
309 Pongo May 11, 2015 $0.9935% (72%)50,000 .. 100,0000%00:00 (00:00)
310 Rise & Shine Jan 13, 2017 $14.9935% (72%)20,000 .. 50,0000%00:00 (00:00)
311 rooMaze Mar 3, 2017 $1.9935% (72%)100,000 .. 200,0000.64%00:06 (00:02)
312 Wyv and Keep: The Temple of the Lost Idol Aug 8, 2014 $14.9935% (72%)20,000 .. 50,0000%00:00 (00:00)
313 Heaven Forest NIGHTS Mar 13, 2017 $0.9935% (72%)100,000 .. 200,0000.54%01:31 (01:00)
314 King Arthur - The Role-playing Wargame Nov 24, 2009 $9.9935% (72%)100,000 .. 200,0000%00:00 (00:00)
315 Gold Rush! Anniversary Nov 7, 2014 $5.9935% (72%)100,000 .. 200,0000.45%00:01 (00:00)
316 There Came an Echo Feb 24, 2015 $14.9935% (72%/58%)20,000 .. 50,0000%00:00 (00:00)
317 Civil War: Battle of Petersburg Feb 8, 2017 $0.9935% (72%)0 .. 20,0000%00:00 (00:00)
318 Pike and Shot : Campaigns Aug 13, 2015 $39.9935% (72%)0 .. 20,00066.67%01:40 (01:06)
319 Cuban Missile Crisis Mar 25, 2015 $4.9935% (72%)20,000 .. 50,0000%00:00 (00:00)
320 Panzer Tactics HD May 22, 2014 $9.9935% (72%/69%)20,000 .. 50,0000%00:00 (00:00)
321 Smithy Jun 3, 2016 $3.99N/A (N/A)50,000 .. 100,0000.6%04:12 (01:24)
322 Airship Dragoon Aug 26, 2014 $19.99N/A (N/A)0 .. 20,0000%00:00 (00:00)
323 Warp Mar 21, 2012 $9.9935% (72%)20,000 .. 50,0000%00:00 (00:00)
324 The Last Federation Apr 18, 2014 $19.9935% (72%/72%)20,000 .. 50,0000%00:00 (00:00)
325 Deadnaut Dec 8, 2014 $9.9935% (72%)0 .. 20,0000%00:00 (00:00)
326 Wildlife Park 2 - Crazy Zoo Jul 17, 2014 $3.99N/A (N/A)0 .. 20,0000%00:00 (00:00)
327 Cross of the Dutchman Sep 10, 2015 $8.9935% (72%/59%)20,000 .. 50,0000%00:00 (00:00)
328 Tom Clancy's EndWar Feb 25, 2009 $9.9934% (71%/68%)50,000 .. 100,0000%00:00 (00:00)
329 Lux Delux May 1, 2015 $9.9934% (71%)20,000 .. 50,0000%00:00 (00:00)
330 A.R.E.S.: Extinction Agenda Jan 19, 2011 $4.9934% (71%/68%)50,000 .. 100,0000%00:00 (00:00)
331 Disney Planes Oct 6, 2014 $19.99N/A (N/A)0 .. 20,0000%00:00 (00:00)
332 Elliot Quest Nov 10, 2014 $9.9934% (71%)20,000 .. 50,0000%00:00 (00:00)
333 REDCON Apr 22, 2016 $5.9934% (71%)0 .. 20,0000%00:00 (00:00)
334 Revolution Under Siege Gold Jul 2, 2015 $24.9934% (71%)0 .. 20,0000%00:00 (00:00)
335 Zombie Camp Aug 1, 2016 $1.99N/A (N/A)0 .. 20,0000%00:00 (00:00)
336 Lost Planet: Extreme Condition Jun 26, 2007 $14.9934% (71%/66%)200,000 .. 500,0000.96%00:47 (00:15)
337 Space Colony: Steam Edition Apr 30, 2015 $14.9934% (71%/74%)20,000 .. 50,0000%00:00 (00:00)
338 Zombie City Defense 2 Aug 19, 2016 $9.9932% (70%)0 .. 20,00012.5%01:00 (00:20)
339 Incandescent Jun 30, 2015 $0.9932% (70%)20,000 .. 50,0000%00:00 (00:00)
340 Little King's Story Aug 5, 2016 $19.9932% (70%/62%)0 .. 20,0000%00:00 (00:00)
341 BitMaster Oct 12, 2016 $2.9932% (70%)100,000 .. 200,0000%00:00 (00:00)
342 Elven Legacy Apr 7, 2009 $4.9932% (70%/71%)50,000 .. 100,0000%00:00 (00:00)
343 Jagged Alliance 2 - Wildfire Nov 16, 2012 $6.9932% (70%)200,000 .. 500,0000.72%07:01 (04:44)
344 Alea Jacta Est Nov 4, 2014 $24.9930% (69%)0 .. 20,0009.09%00:08 (00:02)
345 Brigade E5: New Jagged Union Apr 30, 2014 $3.99N/A (N/A/41%)0 .. 20,0000%00:00 (00:00)
346 1775: Rebellion Sep 29, 2016 $24.99N/A (N/A)0 .. 20,00014.29%03:56 (03:56)
347 UnSummoning: the Spectral Horde Dec 21, 2015 $3.99N/A (N/A)0 .. 20,0000%00:00 (00:00)
348 YAIBA: NINJA GAIDEN Z Mar 21, 2014 $29.9930% (69%/49%)20,000 .. 50,0000%00:00 (00:00)
349 Quick Slick Deadly Sep 21, 2015 $1.9930% (69%)20,000 .. 50,0000%00:00 (00:00)
350 Guns n Zombies Oct 30, 2014 $0.7930% (69%)100,000 .. 200,0000%00:00 (00:00)
351 Strategy & Tactics: Wargame Collection Apr 22, 2016 $9.9930% (69%)20,000 .. 50,0002%04:48 (03:11)
352 Spud's Quest Jul 31, 2014 $7.99N/A (N/A)0 .. 20,0000%00:00 (00:00)
353 Collapse Apr 11, 2014 $1.9930% (69%)50,000 .. 100,0000%00:00 (00:00)
354 FIVE: Guardians of David Nov 24, 2015 $9.9930% (69%/66%)0 .. 20,0000%00:00 (00:00)
355 Space Food Truck Mar 25, 2016 $9.9930% (69%)0 .. 20,0000%00:00 (00:00)
356 RISK: Factions Mar 8, 2011 $9.9930% (69%/77%)50,000 .. 100,0000%00:00 (00:00)
357 Warrior Kings Apr 24, 2014 $9.9930% (69%/73%)20,000 .. 50,0000%00:00 (00:00)
358 Sol 0: Mars Colonization Jan 15, 2016 $3.9930% (69%)20,000 .. 50,0000%00:00 (00:00)
359 The Nightmare Cooperative Jul 16, 2014 $4.9930% (69%)50,000 .. 100,0000%00:00 (00:00)
360 Pigmentone Jul 8, 2016 $0.49N/A (N/A)0 .. 20,00023.53%02:10 (02:23)
361 ManaCollect Apr 17, 2015 $6.9929% (68%)0 .. 20,0000%00:00 (00:00)
362 Theatre of War 2: Africa 1943 Jul 9, 2010 $4.9929% (68%/63%)100,000 .. 200,0000%00:00 (00:00)
363 Fair Strike Apr 23, 2015 $3.99N/A (N/A/56%)0 .. 20,0000%00:00 (00:00)
364 Crazy Forest Jul 6, 2016 $4.9929% (68%)100,000 .. 200,0000.6%02:52 (00:57)
365 Stonerid Aug 15, 2014 $4.9929% (68%)20,000 .. 50,0000%00:00 (00:00)
366 Warhammer 40,000: Armageddon - Da Orks Aug 18, 2016 $19.99N/A (N/A)0 .. 20,0000%00:00 (00:00)
367 Toy Odyssey: The Lost and Found Sep 20, 2016 $14.9929% (68%/66%)50,000 .. 100,0000%00:00 (00:00)
368 Nomad Fleet Apr 19, 2016 $9.9929% (68%)0 .. 20,0006.25%00:30 (00:10)
369 Toren May 11, 2015 $9.9929% (68%/57%)50,000 .. 100,0000.94%03:32 (01:10)
370 8-Bit Commando Jun 2, 2014 $2.9927% (67%)50,000 .. 100,0000%00:00 (00:00)
371 Survivor Squad: Gauntlets Nov 16, 2015 $4.9927% (67%)20,000 .. 50,0000%00:00 (00:00)
372 Zafehouse: Diaries Sep 6, 2013 $1.9927% (67%)50,000 .. 100,0000%00:00 (00:00)
373 Kill The Plumber Dec 31, 2015 $4.9927% (67%)0 .. 20,0000%00:00 (00:00)
374 The Hive Aug 25, 2016 $9.9927% (67%)20,000 .. 50,0000%00:00 (00:00)
375 Scourge: Outbreak Apr 2, 2014 $7.9927% (67%)100,000 .. 200,0000%00:00 (00:00)
376 Sengoku Sep 15, 2011 $9.9927% (67%/70%)50,000 .. 100,0000%00:00 (00:00)
377 Chainsaw Warrior Oct 7, 2013 $4.9927% (67%)100,000 .. 200,0000%00:00 (00:00)
378 Royal Defense Nov 10, 2014 $0.4927% (67%)50,000 .. 100,0000%00:00 (00:00)
379 Sky To Fly: Faster Than Wind Mar 25, 2016 $3.9926% (66%)0 .. 20,0000%00:00 (00:00)
380 Platypus II Aug 15, 2014 $6.9926% (66%)200,000 .. 500,0000.23%04:33 (01:31)
381 Commander Cool 2 Dec 17, 2015 $2.9926% (66%)20,000 .. 50,0001.37%00:01 (00:00)
382 Men of War: Condemned Heroes Apr 12, 2012 $7.9926% (66%/57%)50,000 .. 100,0001.2%00:48 (00:16)
383 Mad Combat Marines Jul 13, 2016 $0.9926% (66%)20,000 .. 50,0001.75%00:01 (00:00)
384 The Living Dungeon Nov 2, 2015 $12.9926% (66%)0 .. 20,0000%00:00 (00:00)
385 Bedlam Oct 13, 2015 $12.9926% (66%/54%)100,000 .. 200,0001.76%06:03 (05:21)
386 7th Legion Oct 23, 2014 $6.9926% (66%)20,000 .. 50,0000%00:00 (00:00)
387 1849 May 8, 2014 $14.9926% (66%)20,000 .. 50,0000%00:00 (00:00)
388 Assassin’s Creed Chronicles: India Jan 12, 2016 $3.3926% (66%)20,000 .. 50,0000%00:00 (00:00)
389 Hunters Of The Dead Sep 4, 2014 $4.9925% (65%)0 .. 20,0000%00:00 (00:00)
390 Malebolgia May 6, 2015 $12.9925% (65%)0 .. 20,0000%00:00 (00:00)
391 Ground Breakers Jun 15, 2016 $4.99N/A (N/A)0 .. 20,0000%00:00 (00:00)
392 Devil's Dare 悪魔の挑戦 Oct 21, 2014 $12.9925% (65%)20,000 .. 50,0000%00:00 (00:00)
393 Marauder Apr 4, 2014 $9.9925% (65%)50,000 .. 100,0000%00:00 (00:00)
394 Theatre of War 2: Kursk 1943 Jul 9, 2010 $4.9925% (65%)50,000 .. 100,0000%00:00 (00:00)
395 Zombie Tycoon 2: Brainhov's Revenge Dec 9, 2013 $4.9925% (65%)50,000 .. 100,0000%00:00 (00:00)
396 The Seven Years War (1756-1763) Oct 30, 2015 $19.9925% (65%)0 .. 20,0000%00:00 (00:00)
397 Infinity Runner Jul 14, 2014 $6.9925% (65%/56%)0 .. 20,0000%00:00 (00:00)
398 Spirit of War Mar 12, 2015 $9.9925% (65%)0 .. 20,0000%00:00 (00:00)
399 March of the Eagles Feb 18, 2013 $19.9925% (65%/71%)50,000 .. 100,0001.96%00:13 (00:04)
400 Frozen Synapse Prime Nov 14, 2014 $24.9925% (65%/83%)100,000 .. 200,0000%00:00 (00:00)
401 Disney Pirates of the Caribbean: At Worlds End Oct 6, 2014 $19.9925% (65%)0 .. 20,0000%00:00 (00:00)
402 Battle Worlds: Kronos Nov 4, 2013 $19.9923% (64%/71%)20,000 .. 50,0000%00:00 (00:00)
403 SPACECOM Sep 17, 2014 $9.9923% (64%/68%)100,000 .. 200,0000%00:00 (00:00)
404 Rise: Battle Lines Nov 17, 2015 $1.9923% (64%)0 .. 20,0000%00:00 (00:00)
405 Double Dragon IV Jan 30, 2017 $6.9923% (64%/50%)0 .. 20,0000%00:00 (00:00)
406 Link Apr 22, 2016 $4.99N/A (N/A)0 .. 20,0000%00:00 (00:00)
407 Revenge of Roger Rouge Apr 22, 2016 $0.99N/A (N/A)20,000 .. 50,0000%00:00 (00:00)
408 Jagged Alliance: Crossfire Aug 24, 2012 $14.9923% (64%/63%)100,000 .. 200,0000%00:00 (00:00)
409 Warlock 2: The Exiled Apr 10, 2014 $19.9923% (64%/73%)50,000 .. 100,0000%00:00 (00:00)
410 Kaiju-A-GoGo Apr 23, 2015 $9.9923% (64%)20,000 .. 50,0000%00:00 (00:00)
411 Urban Pirate Jun 17, 2016 $6.99N/A (N/A)0 .. 20,0000%00:00 (00:00)
412 Zoo Rampage Jul 9, 2014 $3.9923% (64%)0 .. 20,0000%00:00 (00:00)
413 A Game of Dwarves Oct 23, 2012 $9.9923% (64%/60%)50,000 .. 100,0000%00:00 (00:00)
414 Beasts Battle Jun 15, 2016 $1.9923% (64%)0 .. 20,0000%00:00 (00:00)
415 War, the Game Jan 12, 2015 $6.9922% (63%/65%)20,000 .. 50,0000%00:00 (00:00)
416 Port Royale 2 Jun 16, 2009 $0.9922% (63%/75%)50,000 .. 100,0000%00:00 (00:00)
417 Will Fight for Food: Super Actual Sellout: Game of the Hour Apr 22, 2015 $5.9922% (63%)0 .. 20,0000%00:00 (00:00)
418 Desert Ashes Nov 10, 2014 $4.9922% (63%)0 .. 20,0000%00:00 (00:00)
419 Pixel Boy and the Ever Expanding Dungeon May 30, 2014 $0.9922% (63%)20,000 .. 50,0003.39%01:09 (00:46)
420 Disney Epic Mickey 2: The Power of Two Oct 6, 2014 $19.9921% (62%)20,000 .. 50,0000%00:00 (00:00)
421 Bombshell Jan 29, 2016 $34.9921% (62%)0 .. 20,0000%00:00 (00:00)
422 Freight Tycoon Inc. Apr 3, 2014 $4.9921% (62%)20,000 .. 50,0000%00:00 (00:00)
423 My Super Tower 2 Jan 27, 2017 $0.49N/A (N/A)0 .. 20,0000%00:00 (00:00)
424 Flashback Oct 1, 2013 $9.9921% (62%)20,000 .. 50,0000%00:00 (00:00)
425 Goblin Defenders: Steel‘n’ Wood Nov 23, 2015 $2.9921% (62%)20,000 .. 50,0000%00:00 (00:00)
426 Sorcerer King: Rivals Sep 22, 2016 $14.9921% (62%)20,000 .. 50,0000%00:00 (00:00)
427 Hyperspace Pinball Sep 30, 2015 $2.99N/A (N/A)0 .. 20,0000%00:00 (00:00)
428 Battleplan: American Civil War Jul 4, 2014 $9.9921% (62%/66%)100,000 .. 200,0000.81%04:01 (02:50)
429 Spice Road Apr 24, 2014 $19.9921% (62%)0 .. 20,0000%00:00 (00:00)
430 The Few Jun 18, 2014 $7.9921% (62%)20,000 .. 50,0000%00:00 (00:00)
431 Supreme Ruler: Cold War Jul 29, 2011 $9.9921% (62%/63%)20,000 .. 50,0000%00:00 (00:00)
432 4089: Ghost Within Jan 9, 2015 $5.9921% (62%)0 .. 20,0000%00:00 (00:00)
433 To End All Wars Aug 29, 2014 $39.9920% (61%/71%)0 .. 20,0000%00:00 (00:00)
434 Quarantine Feb 9, 2017 $9.9920% (61%)0 .. 20,0000%00:00 (00:00)
435 Men of War: Vietnam Sep 8, 2011 $7.9920% (61%/68%)100,000 .. 200,0002.08%01:25 (00:56)
436 Legions of Steel Jul 16, 2015 $19.99N/A (N/A/64%)0 .. 20,0000%00:00 (00:00)
437 E.T. Armies Mar 3, 2016 $14.9920% (61%/54%)0 .. 20,0000%00:00 (00:00)
438 Purgatory Jun 22, 2016 $0.9920% (61%)200,000 .. 500,0000.09%01:47 (00:35)
439 Patrician IV - Steam Special Edition Sep 17, 2010 $14.9919% (60%/66%)100,000 .. 200,0000%00:00 (00:00)
440 DreamBreak Jul 21, 2016 $6.9919% (60%/46%)0 .. 20,0000%00:00 (00:00)
441 Grim Seventh Jan 20, 2017 FreeN/A (N/A)0 .. 20,0000%00:00 (00:00)
442 Disciples III - Renaissance Steam Special Edition Jul 16, 2010 $14.9919% (60%/56%)100,000 .. 200,0000%00:00 (00:00)
443 Skyshine's BEDLAM Sep 16, 2015 $19.9919% (60%/67%)20,000 .. 50,0000%00:00 (00:00)
444 Close Combat - Panthers in the Fog May 14, 2015 $39.9919% (60%)0 .. 20,0000%00:00 (00:00)
445 Dawn of Andromeda May 4, 2017 $29.9919% (60%/70%)0 .. 20,0000%00:00 (00:00)
446 Hybrid Wars Sep 29, 2016 $17.9919% (60%/54%)0 .. 20,0000%00:00 (00:00)
447 Call of Duty: Black Ops - Mac Edition Sep 27, 2012 $19.9919% (60%)50,000 .. 100,0000%00:00 (00:00)
448 Merchants of Kaidan Nov 10, 2014 $14.9919% (60%)100,000 .. 200,0000.38%02:29 (00:49)
449 7 Grand Steps: What Ancients Begat Jun 7, 2013 $19.9919% (60%)50,000 .. 100,0000%00:00 (00:00)
450 Code of Princess Apr 14, 2016 $14.9919% (60%/53%)0 .. 20,0000%00:00 (00:00)
451 Stay Dead Evolution Feb 4, 2015 $5.9919% (60%)20,000 .. 50,0000%00:00 (00:00)
452 Overruled! Sep 15, 2015 $12.9919% (60%)20,000 .. 50,0000%00:00 (00:00)
453 Life in Bunker Feb 25, 2016 $15.9919% (60%)0 .. 20,00011.11%00:42 (00:14)
454 Woolfe - The Red Hood Diaries Mar 17, 2015 $9.9919% (60%/55%)50,000 .. 100,0000%00:00 (00:00)
455 Prospekt Feb 18, 2016 $9.9918% (59%)20,000 .. 50,0000%00:00 (00:00)
456 Antisquad May 22, 2014 $5.9918% (59%)50,000 .. 100,0005.75%09:21 (09:23)
457 VR Journey Dec 15, 2016 $2.9918% (59%)20,000 .. 50,0000.82%00:24 (00:08)
458 Armada 2526 Gold Edition Feb 28, 2013 $19.9918% (59%/66%)20,000 .. 50,0000%00:00 (00:00)
459 Super Helmets on Fire DX Ultra Edition Plus Alpha Feb 15, 2016 $0.99N/A (N/A)0 .. 20,0000%00:00 (00:00)
460 Cemetery Warrior 3 Feb 3, 2017 $0.4918% (59%)50,000 .. 100,0000%00:00 (00:00)
461 Ninjahtic Mind Tricks Jul 16, 2015 $1.99N/A (N/A)0 .. 20,0000%00:00 (00:00)
462 Ceres Oct 16, 2015 $19.9917% (58%/74%)0 .. 20,0000%00:00 (00:00)
463 Check vs Mate Aug 16, 2012 $2.9917% (58%/69%)0 .. 20,0000%00:00 (00:00)
464 Sir! I'd Like To Report A Bug! Oct 19, 2015 $1.99N/A (N/A)0 .. 20,0000%00:00 (00:00)
465 Adventure World Aug 2, 2016 $4.99N/A (N/A)0 .. 20,0000%00:00 (00:00)
466 Colonial Conquest Jul 28, 2015 $9.9917% (58%)0 .. 20,0007.69%00:01 (00:00)
467 Heavy Fire: Afghanistan Aug 15, 2014 $2.9917% (58%)20,000 .. 50,0000%00:00 (00:00)
468 Prophour23 Oct 22, 2014 $9.9917% (58%)0 .. 20,0002.78%04:34 (01:31)
469 Wanderlust Adventures Aug 10, 2015 $9.9917% (58%)0 .. 20,0000%00:00 (00:00)
470 NOBUNAGA'S AMBITION: Sphere of Influence - Ascension / 信長の野望・創造 戦国立志伝 Mar 23, 2016 $59.9917% (58%)50,000 .. 100,0000%00:00 (00:00)
471 Woodle Tree 2: Worlds Sep 16, 2016 $3.9916% (57%)50,000 .. 100,0000%00:00 (00:00)
472 Unearthed: Trail of Ibn Battuta - Episode 1 - Gold Edition Jan 3, 2014 $4.9916% (57%)20,000 .. 50,0000%00:00 (00:00)
473 Gates of Horizon Dec 18, 2014 $9.9916% (57%)0 .. 20,0000%00:00 (00:00)
474 Rise of Venice Sep 27, 2013 $19.9916% (57%/66%)50,000 .. 100,0000%00:00 (00:00)
475 Assault on Arnhem Mar 11, 2016 $9.99N/A (N/A)0 .. 20,0000%00:00 (00:00)
476 Defend Your Crypt Jul 21, 2016 $2.99N/A (N/A)0 .. 20,0000%00:00 (00:00)
477 Defence to death May 11, 2017 $0.67N/A (N/A)50,000 .. 100,0000%00:00 (00:00)
478 Delve Deeper Sep 24, 2010 $4.9915% (56%)50,000 .. 100,0000%00:00 (00:00)
479 Gnumz: Masters of Defense Dec 21, 2015 $0.4915% (56%)20,000 .. 50,0000%00:00 (00:00)
480 Abalone Apr 23, 2014 $4.9915% (56%)0 .. 20,0000%00:00 (00:00)
481 Horizon Feb 6, 2014 $29.9915% (56%)50,000 .. 100,0000%00:00 (00:00)
482 BC Kings Jun 16, 2009 $4.9914% (55%)20,000 .. 50,0000%00:00 (00:00)
483 Pain Train Jan 11, 2017 $0.9914% (55%)50,000 .. 100,0000%00:00 (00:00)
484 Gettysburg: The Tide Turns Jul 14, 2017 $9.99N/A (N/A)0 .. 20,0000%00:00 (00:00)
485 Tic-Toc-Tower Sep 28, 2015 $2.9914% (54%)0 .. 20,0000%00:00 (00:00)
486 Wickland Feb 6, 2015 $0.9914% (54%)50,000 .. 100,0000.63%06:28 (02:09)
487 Nightside Aug 6, 2015 $9.9913% (53%)20,000 .. 50,0000%00:00 (00:00)
488 Smugglers 5 Apr 11, 2014 $9.9913% (53%)20,000 .. 50,0000%00:00 (00:00)
489 Aegis Oct 6, 2016 $2.99N/A (N/A)0 .. 20,0000%00:00 (00:00)
490 Urja Jan 9, 2015 $9.9913% (53%)20,000 .. 50,0000%00:00 (00:00)
491 The Stalin Subway Sep 19, 2014 $0.5113% (53%)20,000 .. 50,0000%00:00 (00:00)
492 RESCUE 2: Everyday Heroes Jun 3, 2015 $19.9913% (53%)20,000 .. 50,0000%00:00 (00:00)
493 Story Of the Survivor Feb 16, 2016 $4.99N/A (N/A)20,000 .. 50,0000.92%00:01 (00:00)
494 Royal Bounty HD Aug 10, 2015 $2.9912% (52%)0 .. 20,0000%00:00 (00:00)
495 The Campaign Series: Fall Weiss May 30, 2014 $2.2412% (52%)20,000 .. 50,0000%00:00 (00:00)
496 Crusaders: Thy Kingdom Come Oct 8, 2009 $9.99N/A (N/A)20,000 .. 50,0000%00:00 (00:00)
497 Scapeland Mar 31, 2016 $3.9912% (52%)0 .. 20,0000%00:00 (00:00)
498 Meridian: New World Sep 26, 2014 $6.9912% (52%/43%)50,000 .. 100,0000.98%00:01 (00:00)
499 Marvel: Ultimate Alliance 2 Jul 26, 2016 $39.9912% (51%)0 .. 20,0007.14%05:16 (01:45)
500 Guncraft Aug 9, 2013 $14.9912% (51%/73%)100,000 .. 200,0000%00:00 (00:00)
501 Biodrone Battle Jul 16, 2015 $1.9912% (51%)100,000 .. 200,0000.68%01:06 (00:22)
502 PeriAreion Feb 19, 2015 $5.99N/A (N/A)0 .. 20,0000%00:00 (00:00)
503 Dusty Revenge:Co-Op Edition Feb 17, 2014 $14.9912% (51%)0 .. 20,0000%00:00 (00:00)
504 MinosMaze - The Minotaur's Labyrinth May 1, 2017 $4.99N/A (N/A)0 .. 20,0000%00:00 (00:00)
505 MDK2 HD Jul 30, 2012 $14.9911% (50%/73%)0 .. 20,0000%00:00 (00:00)
506 Albedo: Eyes from Outer Space Apr 10, 2015 $14.9911% (50%/66%)50,000 .. 100,0000%00:00 (00:00)
507 Weather Lord: The Successor's Path May 7, 2015 $4.99N/A (N/A)0 .. 20,0000%00:00 (00:00)
508 Castle Werewolf 3D Feb 7, 2017 $2.9911% (50%)50,000 .. 100,0006.59%09:16 (18:55)
509 No Pineapple Left Behind Feb 18, 2016 $9.99N/A (N/A/59%)0 .. 20,0000%00:00 (00:00)
510 Odd||Even Apr 6, 2016 $0.9911% (50%)20,000 .. 50,0000%00:00 (00:00)
511 Z Steel Soldiers Aug 1, 2014 $12.9910% (49%)50,000 .. 100,0003.87%06:11 (10:41)
512 Kidnapped Aug 4, 2015 $2.9910% (49%)100,000 .. 200,0000.34%01:32 (00:30)
513 Rubber and Lead Sep 4, 2015 $4.9910% (48%)20,000 .. 50,0000%00:00 (00:00)
514 Aggression: Europe Under Fire Apr 9, 2014 $9.9910% (48%)20,000 .. 50,0000%00:00 (00:00)
515 Synonymy Mar 5, 2015 $1.9910% (48%)0 .. 20,0000%00:00 (00:00)
516 Meridian: Squad 22 Aug 11, 2016 $14.9910% (48%)0 .. 20,0000%00:00 (00:00)
517 Star Traders: 4X Empires Dec 16, 2014 $9.999% (47%)0 .. 20,0000%00:00 (00:00)
518 Island Defense Jul 23, 2015 $1.999% (47%)50,000 .. 100,0000.4%00:01 (00:00)
519 Crossfire: Dungeons May 21, 2015 $3.999% (47%)0 .. 20,0000%00:00 (00:00)
520 Disposable Heroes Mar 22, 2016 $4.999% (47%)0 .. 20,0000%00:00 (00:00)
521 Blasting Agent: Ultimate Edition Aug 17, 2016 $2.99N/A (N/A)0 .. 20,0000%00:00 (00:00)
522 Hell Nov 13, 2014 $29.99N/A (N/A)0 .. 20,0000%00:00 (00:00)
523 Hero Generations Apr 10, 2015 $5.999% (47%)0 .. 20,0000%00:00 (00:00)
524 HitBox Jan 30, 2017 Free9% (47%)0 .. 20,0000%00:00 (00:00)
525 Megamagic: Wizards of the Neon Age Apr 20, 2016 $9.999% (46%/67%)0 .. 20,0001.59%00:01 (00:00)
526 Nux Aug 15, 2014 $6.99N/A (N/A)100,000 .. 200,0000.87%01:55 (02:22)
527 The Stalin Subway: Red Veil Oct 24, 2014 $0.59% (46%)50,000 .. 100,0003.57%04:02 (01:20)
528 Magic Quest May 6, 2016 $1.99N/A (N/A)50,000 .. 100,0000.41%04:30 (01:30)
529 Redemption: Saints And Sinners Nov 18, 2016 $0.999% (46%)50,000 .. 100,0000%00:00 (00:00)
530 Commander: Conquest of the Americas Jul 30, 2010 $9.999% (46%/68%)20,000 .. 50,0000%00:00 (00:00)
531 The Bluecoats: North vs South Feb 2, 2015 $4.998% (45%)50,000 .. 100,0001.64%03:11 (01:03)
532 Carrier Command: Gaea Mission Sep 28, 2012 $32.998% (45%/60%)200,000 .. 500,0000%00:00 (00:00)
533 Chronostorm: Siberian Border Nov 20, 2015 $0.99N/A (N/A)0 .. 20,0000%00:00 (00:00)
534 World War 2: Time of Wrath Jun 6, 2014 $4.998% (45%)20,000 .. 50,0000%00:00 (00:00)
535 Vendetta - Curse of Raven's Cry Nov 20, 2015 $8.998% (44%)0 .. 20,0000%00:00 (00:00)
536 Impire Feb 14, 2013 $19.998% (44%/45%)100,000 .. 200,0000%00:00 (00:00)
537 DUNGEONS - Steam Special Edition Feb 10, 2011 $9.997% (43%/65%)200,000 .. 500,0000%00:00 (00:00)
538 Skyward Collapse May 23, 2013 $4.997% (43%/64%)100,000 .. 200,0000%00:00 (00:00)
539 Pride of Nations Jun 7, 2011 $19.997% (43%/70%)20,000 .. 50,0000%00:00 (00:00)
540 Samudai Feb 9, 2015 $2.997% (42%)20,000 .. 50,0000%00:00 (00:00)
541 The Entente Gold Jun 16, 2014 $1.997% (42%)50,000 .. 100,0000%00:00 (00:00)
542 Heavy Fire: Shattered Spear Oct 23, 2015 $3.99N/A (N/A)0 .. 20,0000%00:00 (00:00)
543 Burstfire Sep 24, 2015 N/A7% (42%)50,000 .. 100,0000%00:00 (00:00)
544 Sword of the Stars II: Enhanced Edition Nov 30, 2012 $19.997% (42%/65%)100,000 .. 200,0000%00:00 (00:00)
545 Rulers of Nations Jul 16, 2014 $19.997% (41%/63%)0 .. 20,0000%00:00 (00:00)
546 Lost in Paradise Aug 20, 2015 $2.997% (41%)20,000 .. 50,0000%00:00 (00:00)
547 Hydraulic Empire Jul 31, 2015 $7.997% (41%)0 .. 20,0000%00:00 (00:00)
548 Infection: Humanity's Last Gasp May 26, 2016 $9.99N/A (N/A)0 .. 20,0000%00:00 (00:00)
549 Devils & Demons Oct 6, 2015 $9.996% (40%)20,000 .. 50,0000%00:00 (00:00)
550 R.I.P.D.: The Game Jul 16, 2013 $9.996% (40%)20,000 .. 50,0000%00:00 (00:00)
551 Dead But Alive! Southern England Oct 2, 2015 $14.996% (40%)0 .. 20,0000%00:00 (00:00)
552 The Kings' Crusade Oct 8, 2010 $9.996% (40%/71%)50,000 .. 100,0000%00:00 (00:00)
553 Wave of Darkness Nov 5, 2015 $29.996% (40%)0 .. 20,0000%00:00 (00:00)
554 Control Craft 2 Feb 15, 2016 $0.56% (40%)0 .. 20,0000%00:00 (00:00)
555 Dungeons - The Dark Lord Sep 27, 2011 $19.996% (39%/72%)50,000 .. 100,0000.79%00:02 (00:00)
556 Pain Train 2 Mar 16, 2017 $6.996% (39%)0 .. 20,0000%00:00 (00:00)
557 Zombie Apocalypse: Escape The Undead City Nov 25, 2013 $0.996% (39%)0 .. 20,0000%00:00 (00:00)
558 Dark Matter Oct 17, 2013 $9.996% (39%)0 .. 20,0000%00:00 (00:00)
559 Strategic War in Europe Mar 21, 2014 $14.995% (38%)20,000 .. 50,0000%00:00 (00:00)
560 Risk Jun 10, 2013 $9.995% (38%)20,000 .. 50,0000%00:00 (00:00)
561 Gratuitous Space Battles 2 Apr 16, 2015 $9.995% (38%)20,000 .. 50,0000%00:00 (00:00)
562 Mechs & Mercs: Black Talons Jan 9, 2015 $9.995% (38%)0 .. 20,0000%00:00 (00:00)
563 Tiamat X May 29, 2015 $1.995% (37%)50,000 .. 100,0000%00:00 (00:00)
564 Stellar Impact Apr 12, 2012 $9.995% (37%/74%)50,000 .. 100,0002.27%05:09 (03:25)
565 Kick-Ass 2 Aug 15, 2014 $19.995% (36%)0 .. 20,0002.33%01:00 (00:20)
566 Blue Sheep Mar 31, 2016 $1.99N/A (N/A)0 .. 20,0000%00:00 (00:00)
567 Fallen: A2P Protocol Aug 14, 2015 $9.994% (35%)20,000 .. 50,00012.5%02:48 (00:56)
568 Knight Adventure Oct 15, 2015 $0.99N/A (N/A)50,000 .. 100,0000%00:00 (00:00)
569 Urban Empire Jan 20, 2017 $29.994% (35%/62%)50,000 .. 100,0000%00:00 (00:00)
570 Shadows of War Jan 2, 2015 $2.994% (34%)20,000 .. 50,0001.09%00:05 (00:01)
571 Arma Tactics Oct 1, 2013 $8.994% (34%/47%)200,000 .. 500,0000.43%00:01 (00:00)
572 CTU: Counter Terrorism Unit Apr 22, 2016 $14.99N/A (N/A)0 .. 20,0000%00:00 (00:00)
573 Into the Void Dec 4, 2015 $4.994% (34%)20,000 .. 50,0000%00:00 (00:00)
574 Jagged Alliance Flashback Oct 21, 2014 $19.994% (33%)20,000 .. 50,0000%00:00 (00:00)
575 Sim Junta Aug 18, 2015 $1.994% (33%)0 .. 20,0000%00:00 (00:00)
576 Ranger of the jungle Jul 16, 2016 $3.99N/A (N/A)0 .. 20,0000%00:00 (00:00)
577 Disciples III - Resurrection Oct 11, 2011 $14.994% (32%/63%)100,000 .. 200,0000%00:00 (00:00)
578 Evopollution Apr 23, 2014 $4.993% (31%)0 .. 20,0000%00:00 (00:00)
579 - Arcane RERaise - Apr 4, 2017 $2.993% (31%)200,000 .. 500,00025.29%03:58 (04:09)
580 Zombie Zoeds May 20, 2015 $4.993% (31%)200,000 .. 500,0000%00:00 (00:00)
581 Ku: Shroud of the Morrigan Mar 17, 2014 $4.993% (31%)0 .. 20,0000%00:00 (00:00)
582 Psichodelya Aug 8, 2014 $1.993% (31%)100,000 .. 200,0000.47%00:01 (00:00)
583 Ground Pounders Jul 15, 2014 $4.99N/A (N/A)0 .. 20,0000%00:00 (00:00)
584 Robotex Nov 19, 2014 $4.993% (30%)100,000 .. 200,0000%00:00 (00:00)
585 A Game of Thrones - Genesis Sep 28, 2011 $9.993% (30%)100,000 .. 200,0000%00:00 (00:00)
586 Power of Defense Aug 4, 2010 $9.99N/A (N/A)0 .. 20,0000%00:00 (00:00)
587 Tank Operations: European Campaign Nov 22, 2013 $14.993% (30%)20,000 .. 50,0000%00:00 (00:00)
588 Defenders of Time Nov 4, 2014 N/AN/A (N/A/55%)0 .. 20,0000%00:00 (00:00)
589 Solar Shifter EX Sep 11, 2015 $4.993% (28%)0 .. 20,0000%00:00 (00:00)
590 Hard Truck Apocalypse: Arcade / Ex Machina: Arcade Mar 14, 2014 $4.992% (26%)20,000 .. 50,0000%00:00 (00:00)
591 Gridberd Sep 7, 2015 $6.992% (26%)200,000 .. 500,0000%00:00 (00:00)
592 Zombies on a Plane Mar 25, 2016 $4.992% (25%)0 .. 20,0000%00:00 (00:00)
593 One Star Apr 17, 2017 $0.5N/A (N/A)50,000 .. 100,0000.54%04:33 (01:31)
594 APOX Jan 20, 2011 $14.992% (23%/48%)20,000 .. 50,0000%00:00 (00:00)
595 The Asskickers-Steam Edition Feb 6, 2015 $9.992% (22%)0 .. 20,0000%00:00 (00:00)
596 Elite vs. Freedom May 31, 2016 $4.99N/A (N/A)0 .. 20,0000%00:00 (00:00)
597 Lords of the Black Sun Sep 12, 2014 $29.992% (21%)0 .. 20,0000%00:00 (00:00)
598 Human Extinction Simulator Jan 21, 2015 $19.99N/A (N/A)0 .. 20,0000%00:00 (00:00)
599 Gemini Wars Nov 2, 2012 $14.992% (18%/53%)20,000 .. 50,0000%00:00 (00:00)
600 Tryst Sep 14, 2012 $14.99N/A (N/A/50%)0 .. 20,0000%00:00 (00:00)
601 Star Project Aug 4, 2016 $0.491% (16%)100,000 .. 200,0004%04:28 (04:34)
602 Prison Tycoon 3: Lockdown Jan 29, 2008 $9.991% (15%)20,000 .. 50,0000%00:00 (00:00)
603 Once Bitten, Twice Dead! Jul 7, 2015 $4.99N/A (N/A)0 .. 20,0000%00:00 (00:00)
604 Citadels Jul 25, 2013 $14.991% (12%/20%)20,000 .. 50,0000%00:00 (00:00)
605 Bloodbath Jun 16, 2014 $14.99N/A (N/A)0 .. 20,0000%00:00 (00:00)
606 Magnetic By Nature Nov 10, 2014 $9.99N/A (N/A)0 .. 20,0000%00:00 (00:00)

Owners of this game also own:

Access restricted.

This feature is only available to users with special access rights. Sorry.

If you want to proceed, you need to register or log in first and then back Steam Spy on Patreon. Look for Indie or Pro pledge.

Don't forget to use the same email as on Steam Spy!

Playtime distribution:

Access restricted.

This feature is only available to users with special access rights. Sorry.

If you want to proceed, you need to register or log in first and then back Steam Spy on Patreon. Look for Indie or Pro pledge.

Don't forget to use the same email as on Steam Spy!

Playtime (2 weeks):

Access restricted.

This feature is only available to users with special access rights. Sorry.

If you want to proceed, you need to register or log in first and then back Steam Spy on Patreon. Look for Indie or Pro pledge.

Don't forget to use the same email as on Steam Spy!

User reviews:

Login required.

Please register or log in to see this information.